DAL214 KEYW-KPBI

Flight info

Callsign DAL214
Flight time 0h 26m
Altitude 25000
Route BUFTT1 BUFTT SWAGS VUUDU1
Aircraft A320/M-SDE3FGHIRWY/LB1

Departure

Time 2026-05-08 21:34
Airport Key West International Airport (KEYW)

Arrival

Time 2026-05-08 22:00
Airport Palm Beach International Airport (KPBI)
Time Latitude Longitude Altitude Speed Heading
2026-05-08 21:19 24.55440 -81.75539 12 ft 0 kts 180°
2026-05-08 21:25 24.55441 -81.75539 12 ft 2 kts 180°
2026-05-08 21:26 24.55463 -81.75539 12 ft 3 kts 181°
2026-05-08 21:26 24.55484 -81.75532 12 ft 4 kts 243°
2026-05-08 21:26 24.55489 -81.75505 12 ft 4 kts 270°
2026-05-08 21:26 24.55489 -81.75493 12 ft 0 kts 269°
2026-05-08 21:29 24.55489 -81.75494 12 ft 2 kts 269°
2026-05-08 21:29 24.55499 -81.75516 13 ft 4 kts 322°
2026-05-08 21:29 24.55524 -81.75526 12 ft 5 kts 321°
2026-05-08 21:29 24.55530 -81.75582 12 ft 8 kts 270°
2026-05-08 21:30 24.55529 -81.75663 14 ft 14 kts 269°
2026-05-08 21:30 24.55528 -81.75792 12 ft 18 kts 269°
2026-05-08 21:30 24.55527 -81.75935 12 ft 19 kts 269°
2026-05-08 21:30 24.55525 -81.76082 12 ft 20 kts 269°
2026-05-08 21:31 24.55524 -81.76235 12 ft 21 kts 270°
2026-05-08 21:31 24.55522 -81.76399 12 ft 22 kts 270°
2026-05-08 21:31 24.55521 -81.76570 12 ft 18 kts 270°
2026-05-08 21:31 24.55526 -81.76630 12 ft 0 kts 295°
2026-05-08 21:32 24.55557 -81.76659 13 ft 9 kts 335°
2026-05-08 21:32 24.55605 -81.76662 12 ft 1 kts 36°
2026-05-08 21:33 24.55605 -81.76653 11 ft 0 kts 88°
2026-05-08 21:33 24.55607 -81.76564 11 ft 49 kts 89°
2026-05-08 21:33 24.55614 -81.75851 13 ft 135 kts 89°
2026-05-08 21:34 24.55603 -81.74705 569 ft 153 kts 92°
2026-05-08 21:34 24.55701 -81.73517 1441 ft 163 kts 69°
2026-05-08 21:34 24.56580 -81.72619 2103 ft 194 kts 20°
2026-05-08 21:34 24.57994 -81.72528 2813 ft 209 kts 359°
2026-05-08 21:35 24.59451 -81.72550 3378 ft 211 kts
2026-05-08 21:35 24.60934 -81.72520 3954 ft 213 kts
2026-05-08 21:35 24.62406 -81.72462 4524 ft 215 kts
2026-05-08 21:35 24.63923 -81.72383 5113 ft 216 kts
2026-05-08 21:36 24.65467 -81.72292 5515 ft 231 kts
2026-05-08 21:36 24.67117 -81.72188 5880 ft 250 kts
2026-05-08 21:36 24.68878 -81.72069 6548 ft 256 kts
2026-05-08 21:36 24.70657 -81.71827 7264 ft 262 kts 14°
2026-05-08 21:37 24.72418 -81.71077 7732 ft 281 kts 30°
2026-05-08 21:37 24.73981 -81.69746 8430 ft 288 kts 46°
2026-05-08 21:37 24.75361 -81.68120 9213 ft 293 kts 47°
2026-05-08 21:37 24.76767 -81.66471 9990 ft 297 kts 47°
2026-05-08 21:38 24.78201 -81.64797 10607 ft 309 kts 47°
2026-05-08 21:38 24.83791 -81.58972 11578 ft 371 kts 29°
2026-05-08 21:38 24.93692 -81.55234 14348 ft 383 kts 19°
2026-05-08 21:38 25.03909 -81.51512 17417 ft 378 kts 18°
2026-05-08 21:39 25.14546 -81.47665 18988 ft 414 kts 17°
2026-05-08 21:39 25.25636 -81.43643 21170 ft 426 kts 16°
2026-05-08 21:39 25.37028 -81.39504 23139 ft 436 kts 15°
2026-05-08 21:39 25.48691 -81.35270 24794 ft 446 kts 14°
2026-05-08 21:40 25.60644 -81.30911 25055 ft 447 kts 14°
2026-05-08 21:40 25.72580 -81.26562 25131 ft 451 kts 14°
2026-05-08 21:40 25.84528 -81.22196 25022 ft 455 kts 14°
2026-05-08 21:41 26.08436 -81.13424 24825 ft 455 kts 13°
2026-05-08 21:41 26.20318 -81.08950 24959 ft 445 kts 16°
2026-05-08 21:41 26.31888 -81.03447 25043 ft 446 kts 19°
2026-05-08 21:41 26.43495 -80.97992 25090 ft 447 kts 18°
2026-05-08 21:42 26.55092 -80.92613 25105 ft 451 kts 18°
2026-05-08 21:42 26.58911 -80.90825 24921 ft 452 kts 18°
2026-05-08 21:42 26.61805 -80.89463 24059 ft 452 kts 18°
2026-05-08 21:42 26.64737 -80.88087 22892 ft 460 kts 18°
2026-05-08 21:43 26.67692 -80.86703 22059 ft 460 kts 19°
2026-05-08 21:43 26.70354 -80.85454 21104 ft 450 kts 19°
2026-05-08 21:43 26.73219 -80.84106 20160 ft 438 kts 19°
2026-05-08 21:43 26.75863 -80.82635 19970 ft 410 kts 22°
2026-05-08 21:44 26.78359 -80.81341 19840 ft 381 kts 19°
2026-05-08 21:44 26.80665 -80.80155 19728 ft 359 kts 26°
2026-05-08 21:44 26.82585 -80.78505 19734 ft 338 kts 45°
2026-05-08 21:44 26.83904 -80.76386 19369 ft 331 kts 65°
2026-05-08 21:45 26.84527 -80.73932 18872 ft 326 kts 85°
2026-05-08 21:45 26.84485 -80.71422 18371 ft 319 kts 102°
2026-05-08 21:45 26.83872 -80.69072 17902 ft 310 kts 118°
2026-05-08 21:45 26.82799 -80.67074 17823 ft 295 kts 133°
2026-05-08 21:46 26.81375 -80.65452 17790 ft 291 kts 147°
2026-05-08 21:46 26.79684 -80.64279 17533 ft 283 kts 162°
2026-05-08 21:46 26.77838 -80.63622 17283 ft 275 kts 175°
2026-05-08 21:46 26.75963 -80.63477 17037 ft 267 kts 189°
2026-05-08 21:47 26.74157 -80.63795 16780 ft 260 kts 200°
2026-05-08 21:47 26.72417 -80.64426 16123 ft 267 kts 205°
2026-05-08 21:47 26.70674 -80.65218 15367 ft 273 kts 206°
2026-05-08 21:47 26.68916 -80.66078 14610 ft 278 kts 206°
2026-05-08 21:48 26.64501 -80.68245 12749 ft 288 kts 205°
2026-05-08 21:48 26.59757 -80.72186 10547 ft 285 kts 238°
2026-05-08 21:48 26.58917 -80.74109 10529 ft 259 kts 250°
2026-05-08 21:48 26.58407 -80.77689 10478 ft 242 kts 272°
2026-05-08 21:49 26.61323 -80.84305 10503 ft 248 kts 319°
2026-05-08 21:49 26.67875 -80.86380 10518 ft 255 kts
2026-05-08 21:49 26.74520 -80.83606 10505 ft 256 kts 23°
2026-05-08 21:49 26.78773 -80.80752 10553 ft 294 kts 54°
2026-05-08 21:50 26.79593 -80.78622 10520 ft 304 kts 83°
2026-05-08 21:50 26.79614 -80.76355 10369 ft 305 kts 99°
2026-05-08 21:50 26.79063 -80.74086 9898 ft 301 kts 113°
2026-05-08 21:50 26.78295 -80.71910 9504 ft 299 kts 112°
2026-05-08 21:51 26.77554 -80.69745 9221 ft 297 kts 111°
2026-05-08 21:51 26.77073 -80.68316 9054 ft 296 kts 111°
2026-05-08 21:51 26.76360 -80.66163 8731 ft 294 kts 110°
2026-05-08 21:51 26.75660 -80.64021 8363 ft 294 kts 110°
2026-05-08 21:52 26.74955 -80.61880 7938 ft 292 kts 111°
2026-05-08 21:52 26.74243 -80.59760 7522 ft 290 kts 111°
2026-05-08 21:52 26.73531 -80.57680 7332 ft 279 kts 111°
2026-05-08 21:52 26.72854 -80.55725 7341 ft 261 kts 111°
2026-05-08 21:53 26.72212 -80.53889 7341 ft 245 kts 111°
2026-05-08 21:53 26.71606 -80.52158 7343 ft 236 kts 111°
2026-05-08 21:53 26.71078 -80.50651 7208 ft 238 kts 111°
2026-05-08 21:53 26.70459 -80.48885 7083 ft 233 kts 112°
2026-05-08 21:54 26.70032 -80.47137 6922 ft 237 kts 97°
2026-05-08 21:54 26.69908 -80.45244 6258 ft 249 kts 94°
2026-05-08 21:54 26.69805 -80.43267 5586 ft 261 kts 94°
2026-05-08 21:54 26.69697 -80.41202 4899 ft 271 kts 94°
2026-05-08 21:55 26.69582 -80.39074 4319 ft 275 kts 94°
2026-05-08 21:55 26.69465 -80.36963 4048 ft 268 kts 94°
2026-05-08 21:55 26.69349 -80.34921 3829 ft 258 kts 93°
2026-05-08 21:56 26.69183 -80.31121 3576 ft 234 kts 92°
2026-05-08 21:56 26.69108 -80.29312 3292 ft 231 kts 92°
2026-05-08 21:56 26.69035 -80.27562 2994 ft 219 kts 93°
2026-05-08 21:56 26.68965 -80.25904 2714 ft 207 kts 92°
2026-05-08 21:57 26.68898 -80.24329 2464 ft 197 kts 93°
2026-05-08 21:57 26.68836 -80.22864 2205 ft 186 kts 94°
2026-05-08 21:57 26.68776 -80.21452 1943 ft 172 kts 94°
2026-05-08 21:57 26.68722 -80.20193 1731 ft 158 kts 93°
2026-05-08 21:58 26.68672 -80.19010 1545 ft 144 kts 93°
2026-05-08 21:58 26.68625 -80.17929 1350 ft 136 kts 92°
2026-05-08 21:58 26.68582 -80.16893 1171 ft 132 kts 92°
2026-05-08 21:58 26.68539 -80.15883 1004 ft 131 kts 92°
2026-05-08 21:59 26.68495 -80.14867 827 ft 129 kts 92°
2026-05-08 21:59 26.68453 -80.13865 667 ft 130 kts 92°
2026-05-08 21:59 26.68413 -80.12861 486 ft 129 kts 92°
2026-05-08 21:59 26.68360 -80.11847 303 ft 130 kts 93°
2026-05-08 22:00 26.68320 -80.10834 113 ft 131 kts 92°
2026-05-08 22:00 26.68279 -80.09848 23 ft 116 kts 93°
2026-05-08 22:00 26.68247 -80.09146 22 ft 65 kts 94°
2026-05-08 22:00 26.68234 -80.08805 22 ft 30 kts 91°
2026-05-08 22:01 26.68291 -80.08645 22 ft 16 kts
2026-05-08 22:01 26.68353 -80.08715 22 ft 12 kts 325°
2026-05-08 22:01 26.68427 -80.08730 22 ft 10 kts 322°
2026-05-08 22:01 26.68460 -80.08773 22 ft 7 kts 356°
2026-05-08 22:02 26.68529 -80.08770 24 ft 13 kts
2026-05-08 22:02 26.68614 -80.08791 22 ft 12 kts 328°
2026-05-08 22:02 26.68683 -80.08818 22 ft 8 kts
2026-05-08 22:02 26.68725 -80.08816 24 ft 3 kts 355°
2026-05-08 22:03 26.68735 -80.08831 22 ft 3 kts 289°
2026-05-08 22:03 26.68736 -80.08864 22 ft 7 kts 272°
2026-05-08 22:03 26.68737 -80.08889 22 ft 2 kts 272°
2026-05-08 22:03 26.68737 -80.08899 22 ft 0 kts 272°
2026-05-08 22:04 26.68737 -80.08901 22 ft 0 kts 272°